Lower Forni, CA

7:54 AM PST on January 24, 2017 (GMT -0800)
MALPHA | | Change Station
Active Advisory: Hydrologic Statement

Elev 7652 ft 38.80 °N, 120.22 °W | Updated 1 day ago

Mostly Cloudy
Mostly Cloudy
--
Feels Like --
N
23.0
Wind Variable Wind from North

Today
High -- | Low -- °F
--% Chance of Precip.
Yesterday
High -- | Low -- °F
Precip. -- in
Pressure 29.99 in
Visibility 10.0 miles
Clouds Mostly Cloudy 2200 ft
Overcast 2800 ft
Dew Point Not available.
Humidity Not available.
Rainfall 0.04 in
Snow Depth Not available.
7:12 AM 5:13 PM
Waning Crescent, 11% visible
METAR KTVL 241453Z AUTO 20005KT 10SM BKN022 OVC028 M10/M12 A2985 RMK AO2 UPB19E21SNB1357E19 SLP154 P0000 60000 T11001122 53010
Pressure 29.99 in
Visibility 10.0 miles
Clouds Mostly Cloudy 2200 ft
Overcast 2800 ft
Dew Point Not available.
Humidity Not available.
Rainfall 0.04 in
Snow Depth Not available.
7:12 AM 5:13 PM
Waning Crescent, 11% visible
METAR KTVL 241453Z AUTO 20005KT 10SM BKN022 OVC028 M10/M12 A2985 RMK AO2 UPB19E21SNB1357E19 SLP154 P0000 60000 T11001122 53010

Get Your Daily Forecast Email!

Thanks for signing up!

Be on the lookout for a verification email in your inbox.

You'll start receiving the daily forecast at 8 AM.

×

10-Day Weather Forecast

Almanac

Astronomy

Jan. 24, 2017 Rise Set
Actual Time
Civil Twilight
Nautical Twilight
Astronomical Twilight
Moon
Length of Visible Light
Length of Day
Tomorrow will be .
, % of the Moon is Illuminated

Today's Extremes

State Highs State Lows

Community

WunderPhotos

Upload Photos

1,962,540 photos uploaded!

WunderBlog® & News

Nearby

Air Quality

  Air Quality AQ Index Pollutant
Not available.

Snow Depth

Station Depth Elevation

Earthquake Activity

City Distance Mag. Time & Date
Minimum magnitude displayed is 2.5.

Coastal Water Temperatures

Place Temperature

Stations

Nearby Weather Stations

Station Location Temp. Windchill Dew Point Humidity Wind Precip. Elev Updated Type
                   

Watches & Warnings

Hydrologic Statement
Issued: 3:14 PM PST Jan. 23, 2017 – National Weather Service

Forecast information for
Bear River above Wheatland.
* At 2:45 PM Monday the stage was 8.4 feet.
* Forecast to recede to near 7.0 ft tomorrow afternoon then forecast
to fluctuate near 7.0 ft thru tomorrow afternoon.
* Flood stage 24.0 ft
* monitor stage 16.0 ft


&&

Lat... Lon 3899 12158 3903 12142 3897 12133 3882 12161